owner,sensor,date,latitude,longitude,vertical_datum,sea_water_practical_salinity,qcFlag 
SCCF RECON,ioos:station:SCCF:13:1,2014-01-01T00:00:00Z,26.5255,-82.0032,2.31,22.1,1111122 
SCCF RECON,ioos:station:SCCF:13:1,2014-01-01T01:00:00Z,26.5255,-82.0032,2.43,23.35,1111122 
SCCF RECON,ioos:station:SCCF:13:1,2014-01-01T02:00:00Z,26.5255,-82.0032,2.549,27.92,1111122 
SCCF RECON,ioos:station:SCCF:13:1,2014-01-01T03:00:00Z,26.5255,-82.0032,2.61,29.41,1111122 
SCCF RECON,ioos:station:SCCF:13:1,2014-01-01T04:00:00Z,26.5255,-82.0032,2.68,30.73,1111122 
SCCF RECON,ioos:station:SCCF:13:1,2014-01-01T05:00:00Z,26.5255,-82.0032,2.73,31.71,1111122 
SCCF RECON,ioos:station:SCCF:13:1,2014-01-01T06:00:00Z,26.5255,-82.0032,2.716,31.96,1111122 
SCCF RECON,ioos:station:SCCF:13:1,2014-01-01T07:00:00Z,26.5255,-82.0032,2.59,32.11,1111122 
SCCF RECON,ioos:station:SCCF:13:1,2014-01-01T08:00:00Z,26.5255,-82.0032,2.47,32.0,1111122 
SCCF RECON,ioos:station:SCCF:13:1,2014-01-01T09:00:00Z,26.5255,-82.0032,2.36,30.21,1111122 
SCCF RECON,ioos:station:SCCF:13:1,2014-01-01T10:00:00Z,26.5255,-82.0032,2.258,26.03,1111122 
SCCF RECON,ioos:station:SCCF:13:1,2014-01-01T11:00:00Z,26.5255,-82.0032,2.169,25.54,1111122 
SCCF RECON,ioos:station:SCCF:13:1,2014-01-01T12:00:00Z,26.5255,-82.0032,2.08,24.12,1111122 
SCCF RECON,ioos:station:SCCF:13:1,2014-01-01T13:00:00Z,26.5255,-82.0032,2.04,23.13,1111122 
SCCF RECON,ioos:station:SCCF:13:1,2014-01-01T14:00:00Z,26.5255,-82.0032,2.13,22.41,1111122 
SCCF RECON,ioos:station:SCCF:13:1,2014-01-01T15:00:00Z,26.5255,-82.0032,2.277,21.97,1111122 
SCCF RECON,ioos:station:SCCF:13:1,2014-01-01T16:00:00Z,26.5255,-82.0032,2.369,22.49,1111122 
SCCF RECON,ioos:station:SCCF:13:1,2014-01-01T17:00:00Z,26.5255,-82.0032,2.451,25.11,1111122 
SCCF RECON,ioos:station:SCCF:13:1,2014-01-01T18:00:00Z,26.5255,-82.0032,2.534,28.89,1111122 
SCCF RECON,ioos:station:SCCF:13:1,2014-01-01T19:00:00Z,26.5255,-82.0032,2.582,29.97,1111122 
SCCF RECON,ioos:station:SCCF:13:1,2014-01-01T20:00:00Z,26.5255,-82.0032,2.56,30.31,1111122 
SCCF RECON,ioos:station:SCCF:13:1,2014-01-01T21:00:00Z,26.5255,-82.0032,2.49,30.72,1111122 
SCCF RECON,ioos:station:SCCF:13:1,2014-01-01T22:00:00Z,26.5255,-82.0032,2.44,30.81,1111122 
SCCF RECON,ioos:station:SCCF:13:1,2014-01-01T23:00:00Z,26.5255,-82.0032,2.427,30.86,1111122 
SCCF RECON,ioos:station:SCCF:13:1,2014-01-02T00:00:00Z,26.5255,-82.0032,2.43,30.57,1111122 
SCCF RECON,ioos:station:SCCF:13:1,2014-01-02T01:00:00Z,26.5255,-82.0032,2.49,30.15,1111122 
SCCF RECON,ioos:station:SCCF:13:1,2014-01-02T02:00:00Z,26.5255,-82.0032,2.609,30.23,1111122 
SCCF RECON,ioos:station:SCCF:13:1,2014-01-02T03:00:00Z,26.5255,-82.0032,2.72,30.17,1111122 
SCCF RECON,ioos:station:SCCF:13:1,2014-01-02T04:00:00Z,26.5255,-82.0032,2.79,31.61,1111122 
SCCF RECON,ioos:station:SCCF:13:1,2014-01-02T05:00:00Z,26.5255,-82.0032,2.849,32.77,1111122 
SCCF RECON,ioos:station:SCCF:13:1,2014-01-02T06:00:00Z,26.5255,-82.0032,2.87,32.75,1111122 
SCCF RECON,ioos:station:SCCF:13:1,2014-01-02T07:00:00Z,26.5255,-82.0032,2.84,32.66,1111122 
SCCF RECON,ioos:station:SCCF:13:1,2014-01-02T08:00:00Z,26.5255,-82.0032,2.72,32.64,1111122 
SCCF RECON,ioos:station:SCCF:13:1,2014-01-02T09:00:00Z,26.5255,-82.0032,2.581,32.64,1111122 
SCCF RECON,ioos:station:SCCF:13:1,2014-01-02T10:00:00Z,26.5255,-82.0032,2.473,30.88,1111122 
SCCF RECON,ioos:station:SCCF:13:1,2014-01-02T11:00:00Z,26.5255,-82.0032,2.37,29.9,1111122 
SCCF RECON,ioos:station:SCCF:13:1,2014-01-02T12:00:00Z,26.5255,-82.0032,2.27,29.12,1111122 
SCCF RECON,ioos:station:SCCF:13:1,2014-01-02T13:00:00Z,26.5255,-82.0032,2.189,28.04,1111122 
SCCF RECON,ioos:station:SCCF:13:1,2014-01-02T14:00:00Z,26.5255,-82.0032,2.16,27.36,1111122 
SCCF RECON,ioos:station:SCCF:13:1,2014-01-02T15:00:00Z,26.5255,-82.0032,2.29,26.73,1111122 
SCCF RECON,ioos:station:SCCF:13:1,2014-01-02T16:00:00Z,26.5255,-82.0032,2.45,26.34,1111122 
SCCF RECON,ioos:station:SCCF:13:1,2014-01-02T17:00:00Z,26.5255,-82.0032,2.501,27.91,1111122 
SCCF RECON,ioos:station:SCCF:13:1,2014-01-02T18:00:00Z,26.5255,-82.0032,2.549,29.04,1111122 
SCCF RECON,ioos:station:SCCF:13:1,2014-01-02T19:00:00Z,26.5255,-82.0032,2.63,31.4,1111122 
SCCF RECON,ioos:station:SCCF:13:1,2014-01-02T20:00:00Z,26.5255,-82.0032,2.669,31.54,1111122 
SCCF RECON,ioos:station:SCCF:13:1,2014-01-02T21:00:00Z,26.5255,-82.0032,2.65,31.87,1111122 
SCCF RECON,ioos:station:SCCF:13:1,2014-01-02T22:00:00Z,26.5255,-82.0032,2.582,32.08,1111122 
SCCF RECON,ioos:station:SCCF:13:1,2014-01-02T23:00:00Z,26.5255,-82.0032,2.529,31.99,1111122 
SCCF RECON,ioos:station:SCCF:13:1,2014-01-03T00:00:00Z,26.5255,-82.0032,2.499,31.89,1111122 
SCCF RECON,ioos:station:SCCF:13:1,2014-01-03T01:00:00Z,26.5255,-82.0032,2.48,31.11,1111122 
SCCF RECON,ioos:station:SCCF:13:1,2014-01-03T02:00:00Z,26.5255,-82.0032,2.544,30.84,1111122 
SCCF RECON,ioos:station:SCCF:13:1,2014-01-03T03:00:00Z,26.5255,-82.0032,2.68,30.86,1111122 
SCCF RECON,ioos:station:SCCF:13:1,2014-01-03T04:00:00Z,26.5255,-82.0032,2.8,31.26,1111122 
SCCF RECON,ioos:station:SCCF:13:1,2014-01-03T05:00:00Z,26.5255,-82.0032,2.837,31.52,1111122 
SCCF RECON,ioos:station:SCCF:13:1,2014-01-03T06:00:00Z,26.5255,-82.0032,2.892,32.41,1111122 
SCCF RECON,ioos:station:SCCF:13:1,2014-01-03T07:00:00Z,26.5255,-82.0032,2.947,32.98,1111122 
SCCF RECON,ioos:station:SCCF:13:1,2014-01-03T08:00:00Z,26.5255,-82.0032,2.83,33.01,1111122 
SCCF RECON,ioos:station:SCCF:13:1,2014-01-03T09:00:00Z,26.5255,-82.0032,2.7,33.0,1111122 
SCCF RECON,ioos:station:SCCF:13:1,2014-01-03T10:00:00Z,26.5255,-82.0032,2.559,32.32,1111122 
SCCF RECON,ioos:station:SCCF:13:1,2014-01-03T11:00:00Z,26.5255,-82.0032,2.45,32.08,1111122 
SCCF RECON,ioos:station:SCCF:13:1,2014-01-03T12:00:00Z,26.5255,-82.0032,2.358,30.8,1111122 
SCCF RECON,ioos:station:SCCF:13:1,2014-01-03T13:00:00Z,26.5255,-82.0032,2.269,30.2,1111122 
SCCF RECON,ioos:station:SCCF:13:1,2014-01-03T14:00:00Z,26.5255,-82.0032,2.178,27.88,1111122 
SCCF RECON,ioos:station:SCCF:13:1,2014-01-03T15:00:00Z,26.5255,-82.0032,2.11,26.55,1111122 
SCCF RECON,ioos:station:SCCF:13:1,2014-01-03T16:00:00Z,26.5255,-82.0032,2.118,25.57,1111122 
SCCF RECON,ioos:station:SCCF:13:1,2014-01-03T17:00:00Z,26.5255,-82.0032,2.218,24.55,1111122 
SCCF RECON,ioos:station:SCCF:13:1,2014-01-03T18:00:00Z,26.5255,-82.0032,2.309,24.25,1111122 
SCCF RECON,ioos:station:SCCF:13:1,2014-01-03T19:00:00Z,26.5255,-82.0032,2.323,23.8,1111122 
SCCF RECON,ioos:station:SCCF:13:1,2014-01-03T20:00:00Z,26.5255,-82.0032,2.378,23.57,1111122 
SCCF RECON,ioos:station:SCCF:13:1,2014-01-03T21:00:00Z,26.5255,-82.0032,2.371,24.25,1111122 
SCCF RECON,ioos:station:SCCF:13:1,2014-01-03T22:00:00Z,26.5255,-82.0032,2.32,24.22,1111122 
SCCF RECON,ioos:station:SCCF:13:1,2014-01-03T23:00:00Z,26.5255,-82.0032,2.279,23.48,1111122 
SCCF RECON,ioos:station:SCCF:13:1,2014-01-04T00:00:00Z,26.5255,-82.0032,2.24,23.07,1111122 
SCCF RECON,ioos:station:SCCF:13:1,2014-01-04T01:00:00Z,26.5255,-82.0032,2.21,22.78,1111122 
SCCF RECON,ioos:station:SCCF:13:1,2014-01-04T02:00:00Z,26.5255,-82.0032,2.19,22.33,1111122 
SCCF RECON,ioos:station:SCCF:13:1,2014-01-04T03:00:00Z,26.5255,-82.0032,2.22,21.64,1111122 
SCCF RECON,ioos:station:SCCF:13:1,2014-01-04T04:00:00Z,26.5255,-82.0032,2.318,21.69,1111122 
SCCF RECON,ioos:station:SCCF:13:1,2014-01-04T05:00:00Z,26.5255,-82.0032,2.437,25.47,1111122 
SCCF RECON,ioos:station:SCCF:13:1,2014-01-04T06:00:00Z,26.5255,-82.0032,2.53,27.67,1111122 
SCCF RECON,ioos:station:SCCF:13:1,2014-01-04T07:00:00Z,26.5255,-82.0032,2.591,29.59,1111122 
SCCF RECON,ioos:station:SCCF:13:1,2014-01-04T08:00:00Z,26.5255,-82.0032,2.63,30.83,1111122 
SCCF RECON,ioos:station:SCCF:13:1,2014-01-04T09:00:00Z,26.5255,-82.0032,2.62,30.99,1111122 
SCCF RECON,ioos:station:SCCF:13:1,2014-01-04T10:00:00Z,26.5255,-82.0032,2.538,31.18,1111122 
SCCF RECON,ioos:station:SCCF:13:1,2014-01-04T11:00:00Z,26.5255,-82.0032,2.4,31.17,1111122 
SCCF RECON,ioos:station:SCCF:13:1,2014-01-04T12:00:00Z,26.5255,-82.0032,2.32,29.8,1111122 
SCCF RECON,ioos:station:SCCF:13:1,2014-01-04T13:00:00Z,26.5255,-82.0032,2.24,29.1,1111122 
SCCF RECON,ioos:station:SCCF:13:1,2014-01-04T14:00:00Z,26.5255,-82.0032,2.174,26.77,1111122 
SCCF RECON,ioos:station:SCCF:13:1,2014-01-04T15:00:00Z,26.5255,-82.0032,2.119,26.11,1111122 
SCCF RECON,ioos:station:SCCF:13:1,2014-01-04T16:00:00Z,26.5255,-82.0032,2.17,24.73,1111122 
SCCF RECON,ioos:station:SCCF:13:1,2014-01-04T17:00:00Z,26.5255,-82.0032,2.3,24.31,1111122 
SCCF RECON,ioos:station:SCCF:13:1,2014-01-04T18:00:00Z,26.5255,-82.0032,2.39,26.59,1111122 
SCCF RECON,ioos:station:SCCF:13:1,2014-01-04T19:00:00Z,26.5255,-82.0032,2.42,27.64,1111122 
SCCF RECON,ioos:station:SCCF:13:1,2014-01-04T20:00:00Z,26.5255,-82.0032,2.49,28.81,1111122 
SCCF RECON,ioos:station:SCCF:13:1,2014-01-04T21:00:00Z,26.5255,-82.0032,2.52,29.66,1111122 
SCCF RECON,ioos:station:SCCF:13:1,2014-01-04T22:00:00Z,26.5255,-82.0032,2.51,30.39,1111122 
SCCF RECON,ioos:station:SCCF:13:1,2014-01-04T23:00:00Z,26.5255,-82.0032,2.512,30.18,1111122 
SCCF RECON,ioos:station:SCCF:13:1,2014-01-05T00:00:00Z,26.5255,-82.0032,2.45,30.34,1111122 
SCCF RECON,ioos:station:SCCF:13:1,2014-01-05T01:00:00Z,26.5255,-82.0032,2.36,30.22,1111122 
SCCF RECON,ioos:station:SCCF:13:1,2014-01-05T02:00:00Z,26.5255,-82.0032,2.3,29.46,1111122 
SCCF RECON,ioos:station:SCCF:13:1,2014-01-05T03:00:00Z,26.5255,-82.0032,2.27,25.83,1111122 
SCCF RECON,ioos:station:SCCF:13:1,2014-01-05T04:00:00Z,26.5255,-82.0032,2.38,25.47,1111122 
SCCF RECON,ioos:station:SCCF:13:1,2014-01-05T05:00:00Z,26.5255,-82.0032,2.49,27.73,1111122 
SCCF RECON,ioos:station:SCCF:13:1,2014-01-05T06:00:00Z,26.5255,-82.0032,2.58,29.57,1111122 
SCCF RECON,ioos:station:SCCF:13:1,2014-01-05T07:00:00Z,26.5255,-82.0032,2.66,29.89,1111122 
SCCF RECON,ioos:station:SCCF:13:1,2014-01-05T08:00:00Z,26.5255,-82.0032,2.73,31.23,1111122 
SCCF RECON,ioos:station:SCCF:13:1,2014-01-05T09:00:00Z,26.5255,-82.0032,2.728,31.62,1111122 
SCCF RECON,ioos:station:SCCF:13:1,2014-01-05T10:00:00Z,26.5255,-82.0032,2.71,31.78,1111122 
SCCF RECON,ioos:station:SCCF:13:1,2014-01-05T11:00:00Z,26.5255,-82.0032,2.63,31.88,1111122 
SCCF RECON,ioos:station:SCCF:13:1,2014-01-05T12:00:00Z,26.5255,-82.0032,2.53,31.92,1111122 
SCCF RECON,ioos:station:SCCF:13:1,2014-01-05T13:00:00Z,26.5255,-82.0032,2.437,31.22,1111122 
SCCF RECON,ioos:station:SCCF:13:1,2014-01-05T14:00:00Z,26.5255,-82.0032,2.362,28.93,1111122 
SCCF RECON,ioos:station:SCCF:13:1,2014-01-05T15:00:00Z,26.5255,-82.0032,2.285,28.45,1111122 
SCCF RECON,ioos:station:SCCF:13:1,2014-01-05T16:00:00Z,26.5255,-82.0032,2.268,27.34,1111122 
SCCF RECON,ioos:station:SCCF:13:1,2014-01-05T17:00:00Z,26.5255,-82.0032,2.4,26.11,1111122 
SCCF RECON,ioos:station:SCCF:13:1,2014-01-05T18:00:00Z,26.5255,-82.0032,2.528,27.23,1111122 
SCCF RECON,ioos:station:SCCF:13:1,2014-01-05T19:00:00Z,26.5255,-82.0032,2.593,28.83,1111122 
SCCF RECON,ioos:station:SCCF:13:1,2014-01-05T20:00:00Z,26.5255,-82.0032,2.67,30.48,1111122 
SCCF RECON,ioos:station:SCCF:13:1,2014-01-05T21:00:00Z,26.5255,-82.0032,2.73,31.61,1111122 
SCCF RECON,ioos:station:SCCF:13:1,2014-01-05T22:00:00Z,26.5255,-82.0032,2.772,31.62,1111122 
SCCF RECON,ioos:station:SCCF:13:1,2014-01-05T23:00:00Z,26.5255,-82.0032,2.78,31.92,1111122 
SCCF RECON,ioos:station:SCCF:13:1,2014-01-06T00:00:00Z,26.5255,-82.0032,2.709,32.06,1111122 
SCCF RECON,ioos:station:SCCF:13:1,2014-01-06T01:00:00Z,26.5255,-82.0032,2.62,32.08,1111122 
SCCF RECON,ioos:station:SCCF:13:1,2014-01-06T02:00:00Z,26.5255,-82.0032,2.57,31.57,1111122 
SCCF RECON,ioos:station:SCCF:13:1,2014-01-06T03:00:00Z,26.5255,-82.0032,2.52,30.95,1111122 
SCCF RECON,ioos:station:SCCF:13:1,2014-01-06T04:00:00Z,26.5255,-82.0032,2.49,29.32,1111122 
SCCF RECON,ioos:station:SCCF:13:1,2014-01-06T05:00:00Z,26.5255,-82.0032,2.54,28.88,1111122 
SCCF RECON,ioos:station:SCCF:13:1,2014-01-06T06:00:00Z,26.5255,-82.0032,2.63,28.7,1111122 
SCCF RECON,ioos:station:SCCF:13:1,2014-01-06T07:00:00Z,26.5255,-82.0032,2.693,30.38,1111122 
SCCF RECON,ioos:station:SCCF:13:1,2014-01-06T08:00:00Z,26.5255,-82.0032,2.73,30.98,1111122 
SCCF RECON,ioos:station:SCCF:13:1,2014-01-06T09:00:00Z,26.5255,-82.0032,2.76,31.29,1111122 
SCCF RECON,ioos:station:SCCF:13:1,2014-01-06T10:00:00Z,26.5255,-82.0032,2.77,31.87,1111122 
SCCF RECON,ioos:station:SCCF:13:1,2014-01-06T11:00:00Z,26.5255,-82.0032,2.72,32.05,1111122 
SCCF RECON,ioos:station:SCCF:13:1,2014-01-06T12:00:00Z,26.5255,-82.0032,2.63,32.07,1111122 
SCCF RECON,ioos:station:SCCF:13:1,2014-01-06T13:00:00Z,26.5255,-82.0032,2.543,31.49,1111122 
SCCF RECON,ioos:station:SCCF:13:1,2014-01-06T14:00:00Z,26.5255,-82.0032,2.48,30.35,1111122 
SCCF RECON,ioos:station:SCCF:13:1,2014-01-06T15:00:00Z,26.5255,-82.0032,2.42,28.85,1111122 
SCCF RECON,ioos:station:SCCF:13:1,2014-01-06T16:00:00Z,26.5255,-82.0032,2.356,28.51,1111122 
SCCF RECON,ioos:station:SCCF:13:1,2014-01-06T17:00:00Z,26.5255,-82.0032,2.329,27.73,1111122 
SCCF RECON,ioos:station:SCCF:13:1,2014-01-06T18:00:00Z,26.5255,-82.0032,2.416,27.48,1111122 
SCCF RECON,ioos:station:SCCF:13:1,2014-01-06T19:00:00Z,26.5255,-82.0032,2.544,27.51,1111122 
SCCF RECON,ioos:station:SCCF:13:1,2014-01-06T20:00:00Z,26.5255,-82.0032,2.636,29.03,1111122 
SCCF RECON,ioos:station:SCCF:13:1,2014-01-06T21:00:00Z,26.5255,-82.0032,2.678,29.47,1111122 
SCCF RECON,ioos:station:SCCF:13:1,2014-01-06T22:00:00Z,26.5255,-82.0032,2.644,30.56,1111122 
SCCF RECON,ioos:station:SCCF:13:1,2014-01-06T23:00:00Z,26.5255,-82.0032,2.569,31.15,1111122 
SCCF RECON,ioos:station:SCCF:13:1,2014-01-07T00:00:00Z,26.5255,-82.0032,2.52,30.64,1111122 
SCCF RECON,ioos:station:SCCF:13:1,2014-01-07T01:00:00Z,26.5255,-82.0032,2.45,28.88,1111122 
SCCF RECON,ioos:station:SCCF:13:1,2014-01-07T02:00:00Z,26.5255,-82.0032,2.379,28.09,1111122 
SCCF RECON,ioos:station:SCCF:13:1,2014-01-07T03:00:00Z,26.5255,-82.0032,2.3,27.17,1111122 
SCCF RECON,ioos:station:SCCF:13:1,2014-01-07T04:00:00Z,26.5255,-82.0032,2.226,26.92,1111122 
SCCF RECON,ioos:station:SCCF:13:1,2014-01-07T05:00:00Z,26.5255,-82.0032,2.144,25.6,1111122 
SCCF RECON,ioos:station:SCCF:13:1,2014-01-07T06:00:00Z,26.5255,-82.0032,2.113,24.07,1111122 
SCCF RECON,ioos:station:SCCF:13:1,2014-01-07T07:00:00Z,26.5255,-82.0032,2.12,23.33,1111122 
SCCF RECON,ioos:station:SCCF:13:1,2014-01-07T08:00:00Z,26.5255,-82.0032,2.19,22.73,1111122 
SCCF RECON,ioos:station:SCCF:13:1,2014-01-07T09:00:00Z,26.5255,-82.0032,2.262,22.32,1111122 
SCCF RECON,ioos:station:SCCF:13:1,2014-01-07T10:00:00Z,26.5255,-82.0032,2.248,21.73,1111122 
SCCF RECON,ioos:station:SCCF:13:1,2014-01-07T11:00:00Z,26.5255,-82.0032,2.233,21.31,1111122 
SCCF RECON,ioos:station:SCCF:13:1,2014-01-07T12:00:00Z,26.5255,-82.0032,2.19,20.92,1111122 
SCCF RECON,ioos:station:SCCF:13:1,2014-01-07T13:00:00Z,26.5255,-82.0032,2.148,20.88,1111122 
SCCF RECON,ioos:station:SCCF:13:1,2014-01-07T14:00:00Z,26.5255,-82.0032,2.12,20.79,1111122 
SCCF RECON,ioos:station:SCCF:13:1,2014-01-07T15:00:00Z,26.5255,-82.0032,2.081,20.77,1111122 
SCCF RECON,ioos:station:SCCF:13:1,2014-01-07T16:00:00Z,26.5255,-82.0032,2.07,20.87,1111122 
SCCF RECON,ioos:station:SCCF:13:1,2014-01-07T17:00:00Z,26.5255,-82.0032,2.044,20.57,1111122 
SCCF RECON,ioos:station:SCCF:13:1,2014-01-07T18:00:00Z,26.5255,-82.0032,2.059,20.22,1111122 
SCCF RECON,ioos:station:SCCF:13:1,2014-01-07T19:00:00Z,26.5255,-82.0032,2.14,19.99,1111122 
SCCF RECON,ioos:station:SCCF:13:1,2014-01-07T20:00:00Z,26.5255,-82.0032,2.24,21.59,1111122 
SCCF RECON,ioos:station:SCCF:13:1,2014-01-07T21:00:00Z,26.5255,-82.0032,2.329,23.26,1111122 
SCCF RECON,ioos:station:SCCF:13:1,2014-01-07T22:00:00Z,26.5255,-82.0032,2.4,24.93,1111122 
SCCF RECON,ioos:station:SCCF:13:1,2014-01-07T23:00:00Z,26.5255,-82.0032,2.448,28.7,1111122 
SCCF RECON,ioos:station:SCCF:13:1,2014-01-08T00:00:00Z,26.5255,-82.0032,2.45,29.29,1111122 
SCCF RECON,ioos:station:SCCF:13:1,2014-01-08T01:00:00Z,26.5255,-82.0032,2.39,29.3,1111122 
SCCF RECON,ioos:station:SCCF:13:1,2014-01-08T02:00:00Z,26.5255,-82.0032,2.32,28.79,1111122 
SCCF RECON,ioos:station:SCCF:13:1,2014-01-08T03:00:00Z,26.5255,-82.0032,2.27,28.95,1111122 
SCCF RECON,ioos:station:SCCF:13:1,2014-01-08T04:00:00Z,26.5255,-82.0032,2.22,26.84,1111122 
SCCF RECON,ioos:station:SCCF:13:1,2014-01-08T05:00:00Z,26.5255,-82.0032,2.16,26.07,1111122 
SCCF RECON,ioos:station:SCCF:13:1,2014-01-08T06:00:00Z,26.5255,-82.0032,2.102,23.78,1111122 
SCCF RECON,ioos:station:SCCF:13:1,2014-01-08T07:00:00Z,26.5255,-82.0032,2.07,23.53,1111122 
SCCF RECON,ioos:station:SCCF:13:1,2014-01-08T08:00:00Z,26.5255,-82.0032,2.081,22.57,1111122 
SCCF RECON,ioos:station:SCCF:13:1,2014-01-08T09:00:00Z,26.5255,-82.0032,2.15,21.96,1111122 
SCCF RECON,ioos:station:SCCF:13:1,2014-01-08T10:00:00Z,26.5255,-82.0032,2.22,22.07,1111122 
SCCF RECON,ioos:station:SCCF:13:1,2014-01-08T11:00:00Z,26.5255,-82.0032,2.28,25.49,1111122 
SCCF RECON,ioos:station:SCCF:13:1,2014-01-08T12:00:00Z,26.5255,-82.0032,2.32,25.86,1111122 
SCCF RECON,ioos:station:SCCF:13:1,2014-01-08T13:00:00Z,26.5255,-82.0032,2.341,26.71,1111122 
SCCF RECON,ioos:station:SCCF:13:1,2014-01-08T14:00:00Z,26.5255,-82.0032,2.332,27.22,1111122 
SCCF RECON,ioos:station:SCCF:13:1,2014-01-08T15:00:00Z,26.5255,-82.0032,2.29,27.81,1111122 
SCCF RECON,ioos:station:SCCF:13:1,2014-01-08T16:00:00Z,26.5255,-82.0032,2.25,27.87,1111122 
SCCF RECON,ioos:station:SCCF:13:1,2014-01-08T17:00:00Z,26.5255,-82.0032,2.21,27.24,1111122 
SCCF RECON,ioos:station:SCCF:13:1,2014-01-08T18:00:00Z,26.5255,-82.0032,2.19,25.4,1111122 
SCCF RECON,ioos:station:SCCF:13:1,2014-01-08T19:00:00Z,26.5255,-82.0032,2.23,23.24,1111122 
SCCF RECON,ioos:station:SCCF:13:1,2014-01-08T20:00:00Z,26.5255,-82.0032,2.312,24.84,1111122 
SCCF RECON,ioos:station:SCCF:13:1,2014-01-08T21:00:00Z,26.5255,-82.0032,2.394,27.95,1111122 
SCCF RECON,ioos:station:SCCF:13:1,2014-01-08T22:00:00Z,26.5255,-82.0032,2.466,29.09,1111122 
SCCF RECON,ioos:station:SCCF:13:1,2014-01-08T23:00:00Z,26.5255,-82.0032,2.51,29.01,1111122 
SCCF RECON,ioos:station:SCCF:13:1,2014-01-09T00:00:00Z,26.5255,-82.0032,2.56,28.97,1111122 
SCCF RECON,ioos:station:SCCF:13:1,2014-01-09T01:00:00Z,26.5255,-82.0032,2.57,29.2,1111122 
SCCF RECON,ioos:station:SCCF:13:1,2014-01-09T02:00:00Z,26.5255,-82.0032,2.57,29.3,1111122 
SCCF RECON,ioos:station:SCCF:13:1,2014-01-09T03:00:00Z,26.5255,-82.0032,2.52,29.34,1111122 
SCCF RECON,ioos:station:SCCF:13:1,2014-01-09T04:00:00Z,26.5255,-82.0032,2.441,29.39,1111122 
SCCF RECON,ioos:station:SCCF:13:1,2014-01-09T05:00:00Z,26.5255,-82.0032,2.374,29.37,1111122 
SCCF RECON,ioos:station:SCCF:13:1,2014-01-09T06:00:00Z,26.5255,-82.0032,2.31,26.94,1111122 
SCCF RECON,ioos:station:SCCF:13:1,2014-01-09T07:00:00Z,26.5255,-82.0032,2.266,24.96,1111122 
SCCF RECON,ioos:station:SCCF:13:1,2014-01-09T08:00:00Z,26.5255,-82.0032,2.26,25.54,1111122 
SCCF RECON,ioos:station:SCCF:13:1,2014-01-09T09:00:00Z,26.5255,-82.0032,2.29,25.47,1111122 
SCCF RECON,ioos:station:SCCF:13:1,2014-01-09T10:00:00Z,26.5255,-82.0032,2.37,25.1,1111122 
SCCF RECON,ioos:station:SCCF:13:1,2014-01-09T11:00:00Z,26.5255,-82.0032,2.45,26.66,1111122 
SCCF RECON,ioos:station:SCCF:13:1,2014-01-09T12:00:00Z,26.5255,-82.0032,2.51,27.62,1111122 
SCCF RECON,ioos:station:SCCF:13:1,2014-01-09T13:00:00Z,26.5255,-82.0032,2.52,28.27,1111122 
SCCF RECON,ioos:station:SCCF:13:1,2014-01-09T14:00:00Z,26.5255,-82.0032,2.55,29.28,1111122 
SCCF RECON,ioos:station:SCCF:13:1,2014-01-09T15:00:00Z,26.5255,-82.0032,2.57,29.65,1111122 
SCCF RECON,ioos:station:SCCF:13:1,2014-01-09T16:00:00Z,26.5255,-82.0032,2.587,29.73,1111122 
SCCF RECON,ioos:station:SCCF:13:1,2014-01-09T17:00:00Z,26.5255,-82.0032,2.58,29.8,1111122 
SCCF RECON,ioos:station:SCCF:13:1,2014-01-09T18:00:00Z,26.5255,-82.0032,2.54,29.78,1111122 
SCCF RECON,ioos:station:SCCF:13:1,2014-01-09T19:00:00Z,26.5255,-82.0032,2.53,29.95,1111122 
SCCF RECON,ioos:station:SCCF:13:1,2014-01-09T20:00:00Z,26.5255,-82.0032,2.61,29.81,1111122 
SCCF RECON,ioos:station:SCCF:13:1,2014-01-09T21:00:00Z,26.5255,-82.0032,2.68,29.93,1111122 
SCCF RECON,ioos:station:SCCF:13:1,2014-01-09T22:00:00Z,26.5255,-82.0032,2.73,29.99,1111122 
SCCF RECON,ioos:station:SCCF:13:1,2014-01-09T23:00:00Z,26.5255,-82.0032,2.79,30.27,1111122 
SCCF RECON,ioos:station:SCCF:13:1,2014-01-10T00:00:00Z,26.5255,-82.0032,2.84,30.88,1111122 
SCCF RECON,ioos:station:SCCF:13:1,2014-01-10T01:00:00Z,26.5255,-82.0032,2.87,31.34,1111122 
SCCF RECON,ioos:station:SCCF:13:1,2014-01-10T02:00:00Z,26.5255,-82.0032,2.86,31.64,1111122 
SCCF RECON,ioos:station:SCCF:13:1,2014-01-10T03:00:00Z,26.5255,-82.0032,2.78,31.71,1111122 
SCCF RECON,ioos:station:SCCF:13:1,2014-01-10T04:00:00Z,26.5255,-82.0032,2.69,31.54,1111122 
SCCF RECON,ioos:station:SCCF:13:1,2014-01-10T05:00:00Z,26.5255,-82.0032,2.612,28.97,1111122 
SCCF RECON,ioos:station:SCCF:13:1,2014-01-10T06:00:00Z,26.5255,-82.0032,2.531,27.79,1111122 
SCCF RECON,ioos:station:SCCF:13:1,2014-01-10T07:00:00Z,26.5255,-82.0032,2.437,27.76,1111122 
SCCF RECON,ioos:station:SCCF:13:1,2014-01-10T08:00:00Z,26.5255,-82.0032,2.357,27.12,1111122 
SCCF RECON,ioos:station:SCCF:13:1,2014-01-10T09:00:00Z,26.5255,-82.0032,2.322,27.19,1111122 
SCCF RECON,ioos:station:SCCF:13:1,2014-01-10T10:00:00Z,26.5255,-82.0032,2.34,26.43,1111122 
SCCF RECON,ioos:station:SCCF:13:1,2014-01-10T11:00:00Z,26.5255,-82.0032,2.43,25.35,1111122 
SCCF RECON,ioos:station:SCCF:13:1,2014-01-10T12:00:00Z,26.5255,-82.0032,2.5,25.11,1111122 
SCCF RECON,ioos:station:SCCF:13:1,2014-01-10T13:00:00Z,26.5255,-82.0032,2.52,26.01,1111122 
SCCF RECON,ioos:station:SCCF:13:1,2014-01-10T14:00:00Z,26.5255,-82.0032,2.55,26.99,1111122 
SCCF RECON,ioos:station:SCCF:13:1,2014-01-10T15:00:00Z,26.5255,-82.0032,2.589,27.51,1111122 
SCCF RECON,ioos:station:SCCF:13:1,2014-01-10T16:00:00Z,26.5255,-82.0032,2.63,28.61,1111122 
SCCF RECON,ioos:station:SCCF:13:1,2014-01-10T17:00:00Z,26.5255,-82.0032,2.64,29.19,1111122 
SCCF RECON,ioos:station:SCCF:13:1,2014-01-10T18:00:00Z,26.5255,-82.0032,2.598,30.37,1111122 
SCCF RECON,ioos:station:SCCF:13:1,2014-01-10T19:00:00Z,26.5255,-82.0032,2.548,30.81,1111122 
SCCF RECON,ioos:station:SCCF:13:1,2014-01-10T20:00:00Z,26.5255,-82.0032,2.54,30.58,1111122 
SCCF RECON,ioos:station:SCCF:13:1,2014-01-10T21:00:00Z,26.5255,-82.0032,2.582,29.69,1111122 
SCCF RECON,ioos:station:SCCF:13:1,2014-01-10T22:00:00Z,26.5255,-82.0032,2.66,29.81,1111122 
SCCF RECON,ioos:station:SCCF:13:1,2014-01-10T23:00:00Z,26.5255,-82.0032,2.731,30.33,1111122 
SCCF RECON,ioos:station:SCCF:13:1,2014-01-11T00:00:00Z,26.5255,-82.0032,2.78,30.62,1111122 
SCCF RECON,ioos:station:SCCF:13:1,2014-01-11T01:00:00Z,26.5255,-82.0032,2.81,31.2,1111122 
SCCF RECON,ioos:station:SCCF:13:1,2014-01-11T02:00:00Z,26.5255,-82.0032,2.82,31.75,1111122 
SCCF RECON,ioos:station:SCCF:13:1,2014-01-11T03:00:00Z,26.5255,-82.0032,2.81,31.81,1111122 
SCCF RECON,ioos:station:SCCF:13:1,2014-01-11T04:00:00Z,26.5255,-82.0032,2.78,31.99,1111122 
SCCF RECON,ioos:station:SCCF:13:1,2014-01-11T05:00:00Z,26.5255,-82.0032,2.703,31.94,1111122 
SCCF RECON,ioos:station:SCCF:13:1,2014-01-11T06:00:00Z,26.5255,-82.0032,2.6,30.81,1111122 
SCCF RECON,ioos:station:SCCF:13:1,2014-01-11T07:00:00Z,26.5255,-82.0032,2.5,28.08,1111122 
SCCF RECON,ioos:station:SCCF:13:1,2014-01-11T08:00:00Z,26.5255,-82.0032,2.41,27.71,1111122 
SCCF RECON,ioos:station:SCCF:13:1,2014-01-11T09:00:00Z,26.5255,-82.0032,2.331,26.58,1111122 
SCCF RECON,ioos:station:SCCF:13:1,2014-01-11T10:00:00Z,26.5255,-82.0032,2.3,26.15,1111122 
SCCF RECON,ioos:station:SCCF:13:1,2014-01-11T11:00:00Z,26.5255,-82.0032,2.338,25.81,1111122 
SCCF RECON,ioos:station:SCCF:13:1,2014-01-11T12:00:00Z,26.5255,-82.0032,2.44,25.28,1111122 
SCCF RECON,ioos:station:SCCF:13:1,2014-01-11T13:00:00Z,26.5255,-82.0032,2.498,24.98,1111122 
SCCF RECON,ioos:station:SCCF:13:1,2014-01-11T14:00:00Z,26.5255,-82.0032,2.54,25.66,1111122 
SCCF RECON,ioos:station:SCCF:13:1,2014-01-11T15:00:00Z,26.5255,-82.0032,2.599,26.67,1111122 
SCCF RECON,ioos:station:SCCF:13:1,2014-01-11T16:00:00Z,26.5255,-82.0032,2.634,28.6,1111122 
SCCF RECON,ioos:station:SCCF:13:1,2014-01-11T17:00:00Z,26.5255,-82.0032,2.65,29.91,1111122 
SCCF RECON,ioos:station:SCCF:13:1,2014-01-11T18:00:00Z,26.5255,-82.0032,2.64,31.05,1111122 